Dickinson, ND

11:24 PM MDT on July 24, 2017 (GMT -0600)
Dickinson Municipal

Weather History for KDIK - August, 2012

Change the Weather History Date:

Sunday, August 19, 2012

  Actual Average Record
Temperature  
Mean Temperature 64 °F 68 °F  
Max Temperature 82 °F 83 °F 100 °F (1940)
Min Temperature 45 °F 53 °F 32 °F (1950)
Degree Days  
Heating Degree Days 1 2  
Month to date heating degree days 36 21  
Since 1 June heating degree days 105 192  
Since 1 July heating degree days 37 55  
Cooling Degree Days 0 5  
Month to date cooling degree days 59 109  
Year to date cooling degree days 472 338  
Since 1 June cooling degree days 459 328  
Growing Degree Days 14 (Base 50)    
Moisture  
Dew Point 45 °F    
Average Humidity 55    
Maximum Humidity 83    
Minimum Humidity 26    
Precipitation  
Precipitation 0.00 in 0.05 in 1.47 in (1982)
Month to date precipitation 1.15 0.95  
Year to date precipitation 8.40 11.70  
Sea Level Pressure  
Sea Level Pressure 30.05 in    
Wind  
Wind Speed 6 mph (East)    
Max Wind Speed 13 mph    
Max Gust Speed 18 mph    
Visibility 10 miles    
Events      
T = Trace of Precipitation, MM = Missing Value Source: NWS Daily Summary

Daily Weather History Graph

Daily Weather History Graph

Search for Another Location

Airport or City:

Trip Planner

Search our weather history database for the weather conditions in past years. The results will help you decide how hot, cold, wet, or windy it might be!

Date:

Astronomy

Aug. 19, 2012 Rise Set
Actual Time 5:54 AM MDT 7:53 PM MDT
Civil Twilight 5:22 AM MDT 8:26 PM MDT
Nautical Twilight 4:41 AM MDT 9:06 PM MDT
Astronomical Twilight 3:57 AM MDT 9:50 PM MDT
Moon 8:25 AM MDT (8/19) 8:28 PM MDT (8/19)
Length of Visible Light 15h 04m
Length of Day
13h 58m
Waxing Crescent, 5% of the Moon is Illuminated
Aug 19
Waxing Crescent
Aug 24
First Quarter
Aug 31
Full
Sep 8
Last Quarter
Sep 15
New

Hourly Weather History & Observations

Time (MDT) Temp. Dew Point Humidity Pressure Visibility Wind Dir Wind Speed Gust Speed Precip Events Conditions
12:56 AM 51.1 °F 44.1 °F 77% 30.07 in 10.0 mi Calm Calm - N/A   Clear
1:56 AM 48.9 °F 43.0 °F 80% 30.08 in 10.0 mi SSW 5.8 mph - N/A   Clear
2:56 AM 53.1 °F 43.0 °F 69% 30.07 in 10.0 mi Calm Calm - N/A   Clear
3:56 AM 52.0 °F 44.1 °F 74% 30.07 in 10.0 mi NW 6.9 mph - N/A   Clear
4:56 AM 52.0 °F 43.0 °F 71% 30.07 in 10.0 mi NW 3.5 mph - N/A   Clear
5:56 AM 48.0 °F 42.1 °F 80% 30.08 in 10.0 mi WNW 4.6 mph - N/A   Clear
6:56 AM 52.0 °F 46.0 °F 80% 30.09 in 10.0 mi Calm Calm - N/A   Clear
7:56 AM 60.1 °F 48.0 °F 64% 30.10 in 10.0 mi ENE 4.6 mph - N/A   Clear
8:56 AM 64.9 °F 48.0 °F 54% 30.10 in 10.0 mi Calm Calm - N/A   Clear
9:56 AM 71.1 °F 48.0 °F 44% 30.09 in 10.0 mi East 5.8 mph - N/A   Clear
10:56 AM 73.9 °F 46.0 °F 37% 30.09 in 10.0 mi Calm Calm - N/A   Clear
11:56 AM 77.0 °F 44.1 °F 31% 30.07 in 10.0 mi Variable 4.6 mph - N/A   Clear
12:56 PM 79.0 °F 44.1 °F 29% 30.06 in 10.0 mi NNW 4.6 mph - N/A   Clear
1:56 PM 81.0 °F 44.1 °F 27% 30.04 in 10.0 mi Variable 4.6 mph - N/A   Clear
2:56 PM 80.1 °F 43.0 °F 27% 30.02 in 10.0 mi WNW 4.6 mph - N/A   Partly Cloudy
3:56 PM 81.0 °F 43.0 °F 26% 30.01 in 10.0 mi Variable 5.8 mph - N/A   Clear
4:56 PM 81.0 °F 43.0 °F 26% 29.99 in 10.0 mi ENE 6.9 mph - N/A   Clear
5:56 PM 79.0 °F 42.1 °F 27% 29.99 in 10.0 mi East 8.1 mph - N/A   Clear
6:56 PM 75.9 °F 43.0 °F 31% 29.99 in 10.0 mi ENE 8.1 mph - N/A   Clear
7:56 PM 66.9 °F 45.0 °F 45% 29.99 in 10.0 mi East 6.9 mph - N/A   Clear
8:56 PM 61.0 °F 45.0 °F 56% 30.01 in 10.0 mi ESE 8.1 mph - N/A   Clear
9:56 PM 62.1 °F 46.0 °F 56% 30.01 in 10.0 mi SE 10.4 mph - N/A   Clear
10:56 PM 60.1 °F 46.9 °F 62% 30.01 in 10.0 mi SE 10.4 mph - N/A   Clear
11:56 PM 55.9 °F 46.0 °F 69% 30.01 in 10.0 mi SSE 6.9 mph - N/A   Clear